Temp
-6 -6 -7 -7 -8 -9 -10 -11 -11 -12 -12 -12 -12 -12 -12 -12 -12 -11 -11 -10 -10 -9 -9 -8 -8 -8 -7 -6 -4 -4 -3 -1 -1 -1 -1 -0 -0 0 1 1 2 1 1
-6 -6 -7 -7 -8 -9 -10 -11 -11 -11 -11 -12 -12 -12 -12 -12 -12 -11 -11 -10 -10 -9 -9 -9 -8 -7 -7 -7 -5 -3 -3 -2 -1 -1 -1 1 1 1 1 1 1 2 2
-6 -6 -7 -7 -8 -9 -10 -11 -11 -11 -11 -12 -12 -12 -12 -12 -12 -11 -11 -10 -10 -9 -9 -9 -8 -7 -7 -7 -6 -5 -3 -3 -2 -1 -1 1 1 1 0 1 1 2 1
-6 -6 -7 -7 -7 -9 -10 -11 -11 -11 -11 -11 -12 -12 -12 -12 -12 -11 -11 -10 -10 -10 -9 -9 -8 -8 -7 -7 -6 -6 -3 -3 -2 -2 -0 -0 -1 0 0 1 1 2 2
-6 -6 -7 -7 -7 -8 -9 -10 -11 -11 -11 -11 -11 -12 -12 -12 -11 -11 -11 -11 -10 -10 -10 -9 -9 -8 -7 -7 -6 -5 -4 -3 -2 -2 -1 -0 -0 -0 0 1 2 2 2
-6 -6 -7 -7 -7 -8 -9 -10 -11 -11 -11 -11 -11 -12 -12 -12 -12 -12 -11 -11 -11 -10 -10 -10 -10 -9 -8 -7 -7 -6 -4 -2 -2 -1 -1 -1 -1 -1 -0 0 0 2 2
-6 -6 -7 -7 -7 -8 -9 -10 -11 -11 -11 -11 -11 -12 -12 -12 -12 -12 -11 -11 -11 -11 -10 -10 -10 -9 -9 -8 -7 -6 -6 -4 -3 -2 -1 -1 -1 -1 -0 -0 0 2 2
-6 -6 -7 -7 -7 -8 -8 -9 -10 -11 -11 -12 -12 -12 -12 -12 -12 -12 -11 -11 -11 -11 -11 -11 -10 -10 -9 -9 -8 -7 -7 -6 -4 -3 -2 -2 -1 -1 -1 0 -0 -0 1
-5 -6 -7 -7 -8 -8 -8 -9 -9 -11 -11 -12 -12 -12 -12 -12 -12 -12 -12 -12 -11 -11 -11 -10 -11 -10 -10 -9 -9 -7 -7 -6 -5 -4 -2 -1 -1 -1 -2 -1 -1 -1 -0
-5 -6 -7 -7 -8 -8 -8 -8 -9 -10 -11 -11 -12 -12 -12 -12 -12 -12 -12 -12 -11 -11 -11 -10 -10 -10 -10 -10 -9 -9 -8 -7 -6 -5 -4 -3 -2 -2 -2 -2 -1 -1 -1
-5 -6 -6 -7 -7 -8 -8 -9 -9 -9 -10 -11 -12 -12 -12 -12 -12 -12 -11 -11 -11 -11 -11 -10 -10 -10 -10 -10 -9 -9 -8 -8 -7 -7 -6 -5 -3 -4 -4 -3 -4 -2 -2
-5 -6 -6 -7 -7 -8 -8 -9 -9 -9 -10 -11 -11 -12 -12 -12 -12 -12 -12 -11 -11 -11 -11 -11 -11 -11 -10 -10 -10 -10 -9 -9 -8 -7 -7 -6 -5 -4 -4 -3 -4 -3 -2
-5 -6 -6 -7 -7 -8 -8 -9 -9 -9 -10 -10 -11 -11 -12 -12 -12 -12 -12 -12 -11 -11 -11 -11 -11 -11 -11 -10 -10 -10 -10 -10 -9 -8 -7 -7 -7 -6 -4 -4 -3 -2 -2
-5 -6 -6 -7 -7 -8 -8 -9 -9 -9 -10 -10 -10 -11 -12 -12 -12 -12 -12 -12 -12 -12 -12 -12 -11 -11 -11 -11 -11 -10 -10 -10 -9 -9 -8 -8 -7 -7 -7 -5 -4 -4 -3
-5 -6 -6 -7 -7 -8 -8 -9 -9 -9 -9 -10 -10 -10 -11 -11 -11 -11 -12 -12 -12 -12 -12 -12 -12 -11 -11 -11 -11 -11 -11 -11 -10 -10 -10 -9 -9 -8 -7 -7 -6 -6 -4
-5 -6 -6 -7 -7 -8 -8 -9 -9 -9 -9 -10 -10 -10 -10 -11 -11 -11 -12 -12 -12 -12 -12 -12 -12 -11 -11 -11 -11 -11 -11 -11 -11 -10 -10 -10 -10 -9 -9 -8 -8 -7 -6
-5 -6 -6 -7 -7 -8 -8 -9 -9 -9 -9 -10 -10 -10 -10 -11 -11 -11 -12 -12 -12 -12 -12 -12 -12 -12 -12 -12 -12 -11 -11 -11 -11 -11 -11 -11 -10 -10 -10 -9 -9 -8 -8
-5 -6 -6 -7 -7 -8 -8 -9 -9 -9 -9 -10 -10 -10 -10 -11 -11 -11 -11 -12 -12 -11 -11 -12 -12 -12 -12 -12 -12 -12 -12 -12 -12 -11 -11 -11 -11 -11 -11 -10 -10 -10 -9
-5 -6 -6 -7 -7 -8 -8 -8 -9 -9 -9 -10 -10 -10 -10 -11 -11 -11 -11 -11 -11 -12 -12 -12 -12 -12 -12 -12 -12 -12 -12 -12 -12 -12 -12 -12 -11 -11 -11 -11 -11 -11 -11
-6 -6 -7 -7 -7 -8 -8 -8 -9 -9 -9 -10 -10 -10 -10 -10 -11 -11 -11 -11 -12 -12 -12 -12 -12 -12 -12 -12 -13 -13 -13 -13 -13 -13 -12 -12 -12 -12 -12 -12 -12 -12 -11
-6 -6 -6 -7 -7 -7 -8 -8 -8 -9 -9 -10 -10 -10 -10 -11 -11 -11 -11 -11 -12 -12 -12 -12 -12 -12 -12 -12 -13 -13 -13 -13 -13 -13 -13 -13 -13 -13 -13 -12 -12 -12 -13
-5 -6 -6 -6 -7 -7 -8 -8 -8 -9 -9 -10 -10 -10 -10 -11 -11 -11 -11 -11 -12 -12 -12 -12 -12 -12 -13 -13 -13 -13 -13 -13 -13 -13 -13 -13 -13 -13 -13 -13 -13 -13 -13
-5 -5 -6 -6 -7 -7 -7 -8 -8 -9 -9 -9 -10 -10 -10 -11 -11 -11 -11 -11 -12 -12 -12 -12 -12 -13 -13 -13 -13 -13 -13 -14 -14 -14 -14 -14 -14 -14 -14 -14 -14 -14 -14
-5 -5 -6 -6 -6 -7 -7 -8 -8 -9 -9 -9 -10 -10 -10 -10 -11 -11 -11 -11 -12 -12 -12 -12 -13 -13 -13 -13 -13 -14 -14 -14 -14 -14 -14 -14 -15 -15 -15 -15 -15 -15 -16
-5 -5 -5 -6 -6 -7 -7 -8 -8 -9 -9 -9 -10 -10 -10 -10 -11 -11 -11 -11 -12 -12 -12 -13 -13 -13 -13 -13 -14 -14 -14 -14 -15 -15 -15 -15 -15 -16 -16 -16 -16 -16 -17
-4 -5 -6 -6 -7 -7 -7 -8 -8 -8 -9 -9 -10 -10 -10 -11 -11 -11 -11 -12 -12 -12 -12 -13 -13 -13 -14 -14 -14 -14 -14 -15 -15 -15 -15 -16 -16 -16 -16 -17 -17 -17 -17
Height
3092 3085 3078 3069 3060 3050 3043 3036 3030 3024 3018 3011 3004 2997 2991 2983 2978 2974 2971 2969 2968 2966 2965 2963 2961 2959 2956 2957 2961 2964 2966 2973 2984 2993 3000 3004 3013 3019 3026 3037 3046 3059 3070
3091 3085 3079 3070 3060 3052 3045 3038 3032 3026 3020 3014 3007 3001 2995 2989 2982 2978 2975 2972 2970 2969 2968 2967 2964 2962 2959 2958 2959 2964 2969 2974 2983 2990 2997 2999 3008 3016 3022 3032 3040 3051 3064
3092 3086 3079 3071 3062 3054 3047 3040 3035 3029 3023 3017 3012 3005 2999 2993 2988 2983 2979 2976 2973 2971 2969 2967 2965 2963 2962 2961 2962 2965 2971 2976 2979 2987 2991 2997 3005 3013 3021 3028 3030 3044 3052
3093 3087 3080 3072 3064 3056 3049 3043 3037 3031 3026 3020 3015 3009 3003 2998 2993 2988 2984 2980 2977 2974 2971 2969 2966 2965 2964 2963 2962 2965 2969 2975 2978 2983 2988 2995 3002 3009 3018 3025 3034 3038 3048
3094 3088 3081 3074 3066 3059 3052 3046 3040 3034 3028 3023 3019 3014 3008 3003 2998 2993 2989 2985 2980 2976 2973 2970 2968 2966 2965 2964 2965 2965 2967 2971 2977 2984 2988 2994 3000 3008 3015 3020 3026 3030 3040
3095 3089 3082 3076 3069 3062 3055 3049 3043 3037 3032 3027 3022 3018 3013 3007 3002 2998 2995 2990 2986 2981 2978 2974 2971 2968 2967 2967 2967 2966 2967 2970 2976 2983 2987 2994 3001 3007 3012 3018 3023 3027 3037
3096 3090 3084 3078 3072 3066 3059 3053 3047 3042 3036 3030 3025 3022 3017 3012 3008 3003 3000 2995 2991 2987 2982 2978 2974 2972 2970 2969 2968 2968 2969 2972 2976 2981 2986 2993 2999 3004 3010 3016 3020 3027 3032
3096 3091 3086 3080 3075 3069 3063 3056 3050 3045 3040 3034 3029 3025 3021 3018 3013 3008 3005 3000 2996 2992 2987 2983 2980 2977 2973 2972 2972 2973 2972 2974 2976 2979 2985 2991 2997 3002 3008 3012 3019 3022 3029
3096 3092 3087 3082 3077 3072 3067 3060 3054 3048 3043 3038 3033 3028 3025 3022 3018 3014 3010 3005 3002 2998 2994 2989 2985 2981 2979 2978 2975 2974 2976 2975 2976 2980 2984 2988 2995 3001 3007 3009 3014 3020 3022
3097 3093 3088 3083 3078 3074 3070 3064 3058 3051 3046 3042 3037 3033 3028 3025 3023 3019 3015 3011 3006 3003 2999 2996 2992 2988 2984 2982 2979 2978 2979 2980 2980 2981 2983 2986 2992 2998 3005 3007 3010 3015 3020
3097 3094 3089 3085 3080 3076 3071 3066 3061 3055 3050 3045 3041 3036 3032 3028 3026 3023 3019 3016 3012 3008 3005 3001 2997 2992 2990 2987 2985 2985 2982 2981 2982 2982 2984 2985 2990 2998 3003 3006 3010 3013 3016
3097 3094 3090 3086 3082 3078 3073 3069 3064 3059 3055 3050 3045 3040 3036 3032 3029 3026 3023 3020 3016 3013 3009 3005 3003 3000 2997 2993 2991 2988 2985 2985 2984 2984 2986 2986 2988 2995 3000 3004 3008 3012 3014
3097 3094 3091 3088 3084 3080 3076 3072 3068 3063 3059 3054 3050 3046 3041 3037 3033 3029 3027 3024 3021 3017 3013 3009 3007 3006 3003 3000 2996 2993 2991 2989 2988 2988 2988 2988 2989 2993 2997 3000 3004 3009 3011
3097 3094 3092 3089 3086 3082 3078 3075 3071 3068 3064 3059 3055 3051 3046 3042 3038 3034 3030 3027 3024 3021 3018 3015 3012 3010 3008 3006 3003 2999 2996 2993 2992 2991 2990 2991 2991 2992 2993 2996 2999 3003 3007
3097 3094 3092 3090 3087 3084 3081 3078 3075 3071 3068 3064 3060 3056 3052 3048 3043 3039 3034 3030 3026 3024 3022 3020 3018 3015 3012 3010 3007 3004 3002 3000 2998 2996 2995 2993 2994 2993 2994 2995 2996 2999 3003
3097 3095 3092 3090 3088 3086 3083 3080 3077 3074 3071 3067 3064 3060 3056 3052 3047 3043 3039 3035 3031 3028 3026 3024 3022 3019 3016 3013 3010 3009 3007 3004 3003 3000 2999 2997 2997 2996 2994 2995 2996 2996 2998
3097 3094 3092 3091 3089 3086 3084 3081 3079 3075 3072 3069 3066 3062 3059 3055 3051 3047 3043 3040 3036 3033 3030 3027 3024 3022 3019 3017 3014 3012 3010 3007 3006 3005 3003 3000 2998 2997 2997 2997 2996 2996 2996
3096 3094 3092 3090 3088 3087 3085 3082 3080 3077 3074 3071 3068 3065 3061 3058 3054 3051 3047 3044 3041 3038 3034 3030 3027 3024 3022 3020 3017 3015 3013 3013 3010 3008 3005 3004 3002 3000 2999 2998 2997 2995 2993
3095 3093 3092 3090 3088 3086 3085 3083 3080 3078 3075 3072 3069 3066 3063 3060 3056 3053 3050 3047 3044 3040 3037 3034 3031 3028 3024 3022 3020 3018 3016 3012 3009 3008 3007 3006 3004 3002 3000 2999 2997 2995 2992
3094 3092 3090 3089 3087 3086 3084 3082 3080 3078 3075 3072 3069 3067 3064 3061 3058 3055 3052 3049 3046 3043 3040 3037 3034 3031 3027 3024 3021 3019 3017 3015 3013 3011 3008 3009 3004 3002 3002 3000 2997 2994 2992
3092 3091 3089 3088 3086 3084 3083 3081 3079 3077 3074 3072 3069 3067 3064 3062 3059 3056 3054 3051 3047 3044 3041 3038 3035 3032 3030 3027 3023 3020 3018 3015 3013 3011 3008 3005 3002 3002 3002 2997 2995 2993 2992
3090 3089 3088 3086 3085 3083 3081 3079 3077 3075 3073 3071 3069 3067 3064 3062 3059 3057 3054 3051 3048 3045 3042 3040 3037 3034 3031 3028 3025 3022 3019 3016 3013 3010 3008 3006 3003 3002 2998 2994 2993 2991 2990
3088 3087 3086 3084 3082 3081 3079 3077 3075 3073 3071 3069 3068 3065 3063 3061 3059 3056 3054 3051 3049 3046 3043 3040 3038 3035 3032 3029 3026 3023 3020 3017 3014 3010 3007 3004 3002 2998 2995 2993 2991 2989 2988
3085 3085 3083 3082 3080 3078 3076 3075 3073 3071 3069 3067 3065 3063 3061 3059 3057 3055 3052 3050 3047 3045 3042 3040 3037 3035 3032 3029 3026 3023 3020 3017 3013 3010 3007 3004 3000 2997 2994 2991 2989 2987 2984
3082 3081 3080 3078 3076 3075 3073 3071 3070 3068 3066 3065 3063 3061 3059 3057 3055 3052 3050 3048 3046 3044 3041 3039 3036 3034 3031 3029 3026 3023 3020 3017 3014 3010 3007 3004 3001 2998 2995 2992 2989 2985 2982
3078 3077 3076 3075 3074 3072 3070 3068 3066 3064 3062 3061 3059 3058 3056 3054 3052 3050 3047 3045 3043 3041 3039 3036 3034 3032 3030 3027 3025 3022 3019 3016 3013 3010 3007 3004 3001 2998 2994 2991 2988 2984 2980
Wind_Speed
32 34 36 37 39 39 34 29 28 29 30 32 33 31 28 25 21 18 15 13 14 15 15 15 13 9 7 3 9 9 13 33 40 47 27 32 31 35 36 45 51 61 60
30 33 35 36 38 37 33 28 27 28 29 32 32 31 28 26 22 19 17 16 15 15 15 15 14 11 8 6 1 13 12 21 37 38 20 44 26 29 46 45 37 54 61
29 31 33 35 36 36 33 28 26 26 28 30 32 31 29 26 24 21 19 18 18 18 17 16 14 12 9 6 3 9 13 18 24 36 23 28 33 27 32 32 35 42 59
27 30 32 33 35 36 33 28 25 25 26 29 31 32 31 28 24 23 21 21 21 21 20 19 16 11 9 6 3 3 11 18 23 20 33 28 24 34 34 22 42 45 56
25 28 30 32 33 35 34 29 25 24 26 27 29 31 31 30 26 24 22 22 22 23 22 21 19 16 12 8 4 2 8 15 22 28 30 29 32 40 29 31 45 42 49
23 26 28 30 31 33 33 30 26 24 24 26 27 30 31 32 31 28 24 22 22 23 23 22 20 17 14 9 6 4 4 14 18 26 27 24 23 21 20 36 28 36 49
22 25 27 28 28 30 32 30 27 24 23 24 26 27 30 31 31 30 26 24 23 24 25 24 23 19 16 12 8 5 3 7 19 26 27 31 33 28 31 34 27 33 41
21 23 25 26 27 28 30 31 28 26 24 23 25 27 26 28 29 30 28 26 24 24 24 25 23 20 17 14 9 7 4 2 9 20 26 29 37 24 29 35 26 17 45
19 22 24 25 26 26 28 30 30 27 25 24 24 25 26 25 26 27 27 26 24 23 23 22 23 22 21 17 13 9 6 3 3 12 23 29 39 30 23 31 38 24 22
18 20 22 24 24 25 26 28 31 30 27 25 24 23 24 24 25 23 24 25 24 23 22 23 23 24 22 19 16 13 9 6 4 3 12 22 26 29 23 19 27 40 19
17 18 21 23 23 24 25 26 29 31 30 27 25 24 23 23 24 24 22 22 23 25 24 24 25 26 26 23 19 14 13 10 8 4 3 10 21 23 22 24 23 32 31
15 17 19 21 22 23 23 24 26 28 29 29 27 25 24 24 23 22 22 22 22 23 26 28 29 28 26 26 24 23 19 15 9 6 3 3 12 25 23 24 26 25 24
13 15 17 19 21 22 22 22 23 25 27 28 27 26 25 24 22 22 21 21 22 24 25 26 27 27 26 24 23 22 19 17 14 9 5 2 2 11 25 23 24 28 26
11 12 14 16 18 19 20 20 20 21 23 25 27 27 26 25 24 23 22 22 23 24 24 24 24 23 24 24 23 22 21 20 17 14 10 5 2 1 9 22 27 22 22
10 11 13 14 16 17 18 19 19 18 19 20 23 25 25 24 23 24 25 25 26 24 23 22 20 20 20 20 22 22 22 20 18 18 15 11 8 3 4 8 16 28 26
9 10 11 12 13 15 17 17 18 18 18 18 19 22 25 26 25 24 25 25 26 25 24 22 20 19 19 20 20 20 19 20 20 19 17 15 12 9 5 4 8 12 25
9 9 10 11 11 13 15 16 17 18 18 17 18 19 21 23 24 24 24 23 23 23 23 24 24 24 23 21 20 20 20 20 19 18 18 18 16 14 11 8 7 7 11
9 9 9 10 10 11 13 14 15 16 16 17 18 18 18 20 22 23 23 23 22 22 23 24 24 24 24 24 23 22 21 19 18 18 17 17 16 16 14 12 10 9 10
8 9 9 9 10 11 12 13 14 15 16 17 18 17 17 18 19 21 21 20 20 21 21 22 23 24 24 24 23 23 22 21 21 20 18 17 16 16 16 16 15 14 12
8 9 9 10 10 11 11 12 13 15 15 16 16 16 16 16 16 17 19 19 19 19 20 20 21 21 22 23 23 22 22 21 20 19 19 18 18 18 17 15 15 15 15
8 9 10 10 10 11 11 12 13 13 14 15 15 15 14 15 15 15 16 18 18 18 18 19 20 21 21 21 22 23 23 22 22 22 21 20 20 19 18 19 19 18 17
9 10 10 10 11 11 11 11 12 12 13 13 14 14 15 14 14 14 15 15 16 16 17 17 19 20 20 20 21 21 21 22 22 22 22 22 22 21 21 20 20 20 21
10 10 11 11 11 11 11 11 12 12 12 12 13 14 14 14 13 14 14 15 15 16 16 16 17 18 19 19 20 20 20 21 22 23 23 24 24 24 24 24 23 22 23
10 11 11 12 12 11 11 11 12 12 12 12 13 13 14 14 14 13 13 13 13 14 15 15 16 16 17 18 19 19 20 20 21 22 23 24 24 25 25 26 26 26 26
11 11 12 12 12 12 12 12 13 13 13 13 13 13 14 14 14 14 13 13 13 14 14 15 15 15 16 17 18 18 19 19 20 21 22 23 24 25 26 27 28 28 29
12 13 12 13 13 13 13 14 14 14 14 14 14 14 14 14 15 15 15 14 14 14 15 15 15 15 15 15 16 17 18 18 19 19 20 21 23 24 25 26 28 29 31
Wind_Direction
359 1 2 2 3 7 10 12 12 14 15 15 16 16 18 20 23 28 33 32 31 28 27 27 22 13 349 335 213 207 189 186 202 218 233 215 203 218 201 189 203 207 201
1 3 4 5 6 9 12 14 15 16 18 20 20 21 22 24 26 31 38 37 32 28 26 27 25 18 4 352 183 207 210 192 187 190 192 194 207 216 212 203 205 205 198
2 4 7 8 8 10 14 16 16 18 20 23 23 26 27 29 29 33 36 38 34 28 25 26 29 23 18 6 17 194 207 209 196 189 185 193 196 211 208 213 209 216 206
3 7 10 11 11 12 15 17 17 20 23 24 26 29 31 33 32 34 35 36 31 28 24 24 28 32 27 25 23 168 215 207 204 201 190 184 195 200 200 211 213 218 210
5 9 12 14 13 13 15 18 18 22 26 26 27 31 32 34 37 36 31 35 30 26 23 23 25 34 36 35 34 149 188 206 201 211 204 201 199 186 200 194 202 212 216
7 12 15 17 17 16 17 19 20 22 27 28 29 30 33 34 35 35 30 35 32 30 27 27 28 28 35 41 38 67 174 202 204 204 196 198 204 210 216 206 204 193 206
9 14 17 20 20 19 19 20 22 23 28 30 30 31 31 33 33 34 30 34 32 32 30 28 29 31 33 40 49 46 91 195 203 204 200 200 190 206 210 200 187 187 200
11 15 17 21 23 23 22 22 23 24 27 32 32 33 33 32 33 32 30 32 31 32 32 31 30 33 39 41 54 60 51 134 190 203 208 209 198 202 194 189 188 166 205
12 16 17 21 25 26 26 25 24 27 26 30 34 34 35 35 34 33 31 32 30 33 36 36 38 36 39 40 44 58 63 54 160 200 206 210 214 215 217 197 201 201 168
12 15 18 21 24 27 29 29 28 28 28 28 32 33 35 36 37 34 35 38 37 38 38 40 44 45 47 42 44 47 47 54 75 182 208 205 227 241 225 213 200 196 201
13 15 19 22 23 26 28 30 30 31 30 29 30 31 32 35 36 37 37 37 41 45 45 45 44 43 42 46 49 54 57 52 53 68 209 204 207 216 221 218 241 243 249
15 15 19 22 23 26 28 29 30 31 32 32 30 30 30 30 31 33 37 40 41 43 44 45 43 40 37 37 39 42 43 44 42 45 35 212 208 210 209 210 231 233 237
16 16 19 22 23 25 28 28 29 31 32 33 35 34 34 34 32 31 34 40 44 44 43 42 40 38 36 35 36 39 40 40 39 38 42 40 189 222 222 216 206 219 213
15 17 19 22 23 25 28 28 28 29 30 32 33 33 35 36 37 38 38 39 43 45 43 40 38 35 36 36 35 34 36 38 39 40 44 40 41 280 237 233 226 220 229
11 16 18 21 22 25 27 27 28 30 30 29 32 34 34 33 36 39 40 40 41 42 44 42 37 36 35 36 37 38 36 36 35 37 38 35 18 16 270 253 247 237 233
4 12 14 17 20 22 24 26 27 28 28 28 29 31 33 34 34 35 38 36 39 39 42 43 44 40 37 37 37 37 37 36 36 35 32 32 29 17 6 305 268 258 241
357 1 7 10 15 18 21 23 24 25 27 27 28 28 30 32 34 36 38 37 37 36 37 38 40 43 44 40 35 34 33 32 31 30 30 28 24 22 14 357 334 298 267
349 354 358 358 6 12 17 21 22 22 23 24 26 27 27 28 30 33 35 35 36 36 35 33 34 35 37 38 38 36 34 31 27 26 24 22 20 18 12 5 359 345 327
342 345 346 347 355 3 8 14 17 18 20 23 22 22 23 25 25 28 30 32 34 35 36 34 29 27 28 27 28 29 29 26 25 24 20 14 12 9 6 3 360 355 351
334 336 337 339 346 352 358 3 8 13 16 18 19 19 19 18 21 21 23 25 27 30 30 31 31 28 24 22 22 20 20 20 18 16 15 11 9 5 356 353 350 346 342
327 329 331 334 339 342 348 353 358 3 8 11 12 12 12 12 11 12 15 19 20 20 21 22 23 24 25 24 22 21 19 17 16 14 12 9 4 358 352 349 345 340 335
320 323 327 330 332 333 337 343 347 351 356 359 2 5 5 5 5 4 5 7 13 13 13 13 15 17 19 19 20 21 19 15 12 9 7 5 2 358 354 349 341 333 328
315 320 323 324 324 324 327 332 335 339 341 346 352 355 356 356 356 357 357 357 358 1 4 5 6 8 11 13 14 14 14 14 12 9 7 4 2 359 357 352 347 338 328
310 316 317 317 317 318 319 321 322 326 330 334 338 342 346 348 349 348 347 347 347 347 351 355 355 358 1 4 5 7 8 10 10 9 9 7 6 4 3 0 356 351 346
306 308 309 309 310 313 314 313 313 316 320 322 324 329 335 339 339 338 337 337 336 336 338 341 344 346 351 355 357 359 0 2 5 7 8 8 7 7 6 5 2 359 354
297 298 300 303 306 308 308 308 308 309 310 312 316 319 321 326 330 329 328 328 327 326 327 329 332 334 338 343 347 350 351 353 356 360 2 3 3 3 2 1 359 358 356